Lapse_Rate
7.5 7.3 7.0 6.9 6.9 6.8 6.8 6.8 6.7 6.6 6.6 6.4 6.3 6.2 6.1 6.2 6.2 6.1 6.2 6.1 6.0 6.1
7.4 7.3 7.1 7.0 7.0 7.0 6.9 6.7 6.5 6.6 6.7 6.6 6.5 6.3 6.3 6.2 6.4 6.3 6.2 5.8 6.0 5.9
7.4 7.2 6.9 6.6 6.8 7.0 7.0 6.9 7.1 7.0 6.9 6.8 6.6 6.4 6.2 6.2 5.9 6.1 6.1 5.9 5.9 6.0
7.6 7.3 7.1 7.1 7.1 7.3 7.2 7.3 7.2 6.9 6.7 6.3 6.1 6.1 6.1 5.6 5.8 6.1 6.1 6.0 5.9 6.2
6.8 6.5 6.9 7.4 7.3 7.3 7.0 6.8 6.7 6.6 6.1 5.8 6.2 6.0 6.3 6.0 5.6 5.8 6.1 6.2 6.0 6.6
7.0 6.3 6.4 7.4 7.3 7.6 7.1 6.7 6.9 6.5 6.7 6.0 6.8 6.4 6.5 6.4 6.4 6.1 6.1 6.4 6.6 6.5
7.2 7.0 6.9 7.0 7.0 7.0 6.7 6.6 6.8 6.9 6.6 6.6 6.6 6.7 6.7 6.7 6.8 6.7 6.5 6.5 6.6 6.5
7.5 7.2 7.2 7.2 7.1 7.1 7.1 7.0 6.8 6.9 6.8 6.8 7.0 7.2 7.1 7.0 7.1 6.6 6.4 6.2 6.4 6.4
7.7 7.6 7.5 7.3 7.3 7.2 7.1 7.1 6.7 6.7 6.8 6.7 7.1 7.1 7.1 6.8 6.4 6.2 6.6 6.4 6.3 6.3
7.4 7.3 7.2 7.2 7.2 7.2 7.1 6.9 6.8 6.8 6.8 6.8 6.9 7.0 6.8 6.3 6.2 6.4 6.1 6.1 6.1 5.8
7.2 7.1 7.0 6.9 6.8 6.7 6.7 6.7 6.9 6.8 6.9 6.9 6.9 6.9 6.7 6.4 6.2 6.3 6.1 5.8 6.2 6.0
6.9 6.7 6.7 6.6 6.5 6.6 6.8 6.9 6.8 6.8 6.8 6.8 6.5 6.6 6.6 6.4 5.9 6.0 5.7 5.8 6.1 6.0
7.0 6.8 6.7 6.8 7.0 7.0 6.9 6.8 6.7 6.7 6.6 6.6 6.6 6.5 6.3 6.1 6.1 6.1 6.1 6.0 5.8 5.4
7.0 6.9 6.9 6.9 6.8 6.7 6.6 6.6 6.6 6.6 6.5 6.3 6.2 6.1 5.9 5.8 5.8 5.8 5.6 5.5 5.4 5.3
Wind_Speed
8 7 6 5 4 4 5 5 7 9 9 12 13 12 11 7 8 7 6 9 9 7
8 7 6 7 5 5 5 4 6 6 8 6 7 7 7 7 8 8 9 10 9 6
7 7 6 6 8 8 7 8 8 9 9 7 6 7 8 7 7 8 6 6 9 9
7 8 9 12 13 14 11 12 12 12 11 10 11 11 10 11 8 9 8 7 9 8
15 15 19 19 18 13 13 12 13 11 12 12 12 12 12 11 10 10 9 9 8 7
17 19 18 17 15 10 13 11 12 14 11 10 8 8 8 9 8 9 9 9 9 8
18 19 12 6 8 12 13 13 12 10 9 7 7 7 7 6 6 7 7 7 6 8
19 17 12 9 9 8 9 8 6 5 5 6 6 5 7 7 7 7 7 5 6 5
10 9 8 5 6 6 5 6 7 6 7 6 4 10 10 9 8 8 9 9 10 10
8 7 5 5 5 5 5 6 6 6 7 6 7 11 12 12 8 8 9 11 8 9
7 6 6 5 5 6 4 6 6 6 7 8 7 13 14 15 11 10 9 8 8 8
7 7 7 6 6 6 7 7 6 6 8 10 9 15 16 14 10 10 10 7 7 7
7 8 7 8 8 4 7 8 8 10 9 12 9 14 15 12 7 9 7 7 8 11
8 8 8 8 7 8 9 10 10 11 10 11 10 10 15 12 6 6 5 5 5 3
Wind_Direction
196 206 215 208 194 210 204 199 183 201 201 209 207 205 198 205 210 201 212 222 215 218
192 195 193 202 202 205 203 199 196 198 208 208 208 203 190 209 208 197 206 214 210 212
187 188 200 203 215 209 208 197 194 197 200 198 185 185 197 220 207 209 217 208 200 205
182 198 206 215 221 223 213 204 207 208 201 203 207 199 192 211 194 197 205 195 203 205
195 209 222 223 231 231 218 206 204 197 215 219 203 194 198 201 193 191 198 195 189 184
215 228 239 227 225 206 211 210 207 211 215 215 194 197 193 204 197 194 197 185 176 181
215 229 240 221 194 195 202 208 218 207 202 179 176 186 173 179 164 160 162 161 177 166
213 218 218 198 199 204 205 211 209 179 151 148 162 164 159 155 149 143 134 121 121 90
201 194 190 171 161 165 165 160 159 166 163 165 149 141 135 137 141 139 135 116 105 96
161 161 148 132 137 145 135 123 124 129 134 133 119 134 131 123 123 120 111 120 117 105
136 132 128 134 134 121 126 135 135 132 124 115 110 116 116 108 106 96 96 101 109 117
138 135 134 137 133 124 120 109 104 105 107 109 111 110 103 102 98 94 88 85 88 103
130 136 128 115 112 96 102 93 86 72 74 85 95 100 103 105 110 108 110 103 91 85
104 105 108 102 107 106 98 93 86 83 70 75 81 86 96 99 98 112 108 107 99 87